Location: Saginaw
(43.4195°N, 83.9508°W)
Time: 02:44:43
(UTC-04:00)

Daily predictions for brighter satellites

Satellite Brightness Start Highest point End
(mag) Time Altitude Azimuth Time Altitude Azimuth Time Altitude Azimuth
CZ-4 R/B 3.6 00:03:16 10° NNE 00:07:57 90° ESE 00:08:21 75° SSW
Cosmos 1655 Rocket 4.0 00:11:03 43° SSW 00:13:15 77° W 00:19:32 10° N
Cosmos 2082 3.8 00:07:51 10° NNW 00:13:35 67° ENE 00:14:40 55° ESE
Cosmos 1633 3.5 00:15:22 45° N 00:15:22 45° N 00:17:57 10° N
ALOS 2 4.0 00:14:39 27° ENE 00:14:40 27° ENE 00:18:22 10° N
Cosmos 2278 3.7 00:17:39 60° SE 00:17:56 61° ESE 00:23:33 10° NNE
Cosmos 2026 Rocket 4.5 00:15:05 30° SW 00:18:01 55° WNW 00:24:12 10° N
Cosmos 2151 Rocket 3.7 00:25:49 67° NE 00:25:49 67° NE 00:29:46 10° NNE
Cosmos 1536 Rocket 3.8 00:21:36 10° N 00:25:31 62° NE 00:25:31 62° NE
Cosmos 1371 Rocket 4.0 00:26:32 62° E 00:26:32 62° E 00:31:30 10° NNE
CZ-2C R/B 3.1 00:22:17 10° NNE 00:26:55 44° E 00:26:55 44° E
H-2A R/B 3.0 00:27:42 36° W 00:27:42 36° W 00:31:22 10° NNW
Cosmos 1190 Rocket 4.4 00:24:38 10° N 00:29:44 51° ENE 00:30:12 50° E
Mayak 1.0 00:28:09 10° NE 00:29:34 15° ENE 00:29:34 15° ENE
USA 229 DEB 3.8 00:30:45 52° SE 00:31:11 53° ESE 00:37:53 10° NE
USA 229 3.8 00:30:53 52° SE 00:31:17 52° ESE 00:37:58 10° NE
Cosmos 1656 3.7 00:32:39 60° E 00:32:39 60° E 00:37:54 10° NNE
Cosmos 2227 Rocket 2.1 00:30:58 10° NNW 00:36:36 69° WSW 00:37:06 65° SW
CZ-4C R/B 3.5 00:32:06 10° NNW 00:38:51 48° NE 00:42:51 27° ESE
Cosmos 883 Rocket 4.3 00:34:58 10° N 00:41:10 76° E 00:42:03 64° SE
S3M 4.3 00:37:00 10° NNW 00:42:58 57° W 00:44:18 47° SW
Meteor 1-19 Rocket 4.2 00:40:29 10° NNW 00:46:21 77° W 00:47:03 67° SSW
GP-B 4.0 00:44:57 10° NNE 00:48:24 41° NE 00:48:24 41° NE
Cosmos 407 Rocket 3.5 00:44:03 10° NNW 00:49:23 69° ENE 00:49:36 68° E
Cosmos 1624 Rocket 3.9 00:49:48 84° ESE 00:49:48 84° ESE 00:55:09 10° NNE
Meteor 1-13 Rocket 4.3 00:45:01 10° NNW 00:50:47 70° W 00:51:27 64° SW
ISS -1.3 00:55:02 10° NW 00:57:24 21° N 00:57:24 21° N
BREEZE-M DEB (TANK) 4.1 00:38:12 10° SW 00:58:28 67° SSE 01:03:12 10° ENE
Terra 4.1 00:59:48 13° W 01:00:35 13° W 01:02:54 10° WNW
Cosmos 1980 Rocket 2.9 01:01:51 40° E 01:01:51 40° E 01:06:23 10° NE
CZ-4B R/B 4.5 00:57:39 10° N 01:02:11 37° WNW 01:03:11 33° W
Cosmos 2369 4.1 01:02:11 48° WSW 01:03:28 60° WNW 01:09:08 10° NNE
Meteor 1-23 Rocket 4.0 01:04:31 10° N 01:10:12 89° ENE 01:10:22 85° SSE
Meteor 2-4 Rocket 3.7 01:05:58 10° NNW 01:11:16 65° W 01:11:16 65° W
CZ-4B R/B 4.1 01:12:24 16° NE 01:12:24 16° NE 01:13:52 10° NNE
Meteor 1-5 Rocket 4.0 01:14:00 84° SE 01:14:05 85° E 01:19:37 10° NNE
Cosmos 1536 3.9 01:15:11 44° NNW 01:15:11 44° NNW 01:18:12 10° N
Okean 1 Rocket 3.7 01:15:29 54° N 01:15:29 54° N 01:18:53 10° N
Meteor 1-11 Rocket 4.2 01:15:49 49° WSW 01:16:51 56° WNW 01:22:42 10° N
NOSS 3-1 (C) 3.8 01:20:00 47° E 01:20:00 47° E 01:25:31 10° NE
Cosmos 1954 Rocket 4.1 01:14:23 10° NNW 01:19:37 69° ENE 01:19:37 69° ENE
Cosmos 2056 Rocket 3.8 01:20:47 56° WNW 01:21:01 56° WNW 01:26:05 10° NNE
ATLAS CENTAUR R/B 4.5 01:22:20 10° NW 01:22:48 10° NW 01:23:15 10° NNW
Okean 2 4.4 01:19:23 10° N 01:22:22 45° N 01:22:22 45° N
CZ-2C R/B 3.7 01:26:42 42° W 01:26:42 42° W 01:30:58 10° NNW
Cosmos 1697 Rocket 2.7 01:26:53 69° W 01:27:16 72° WNW 01:32:54 10° NNE
Cosmos 1745 Rocket 4.4 01:29:34 46° ESE 01:30:02 47° E 01:35:53 10° NNE
Cosmos 2297 Rocket 3.3 01:25:35 10° NW 01:30:09 31° W 01:30:09 31° W
Cosmos 1025 Rocket 3.8 01:26:38 10° NNW 01:29:54 50° NNW 01:29:54 50° NNW
Okean 1-7 Rocket 4.2 01:26:34 10° N 01:29:59 53° NNW 01:29:59 53° NNW
Cosmos 614 Rocket 4.0 01:38:09 10° NNW 01:42:54 74° NNE 01:42:54 74° NNE
Cosmos 1452 Rocket 3.5 01:47:07 79° NW 01:47:07 79° NW 01:52:15 10° NNE
Cosmos 2315 Rocket 4.5 01:41:59 10° NNW 01:47:51 45° W 01:48:24 44° WSW
SL-16 R/B 3.1 01:48:33 35° E 01:48:33 35° E 01:53:13 10° NE
ALOS 2 4.2 01:52:03 26° WNW 01:52:03 26° WNW 01:54:45 10° NW
Cosmos 921 Rocket 4.3 01:52:02 34° NW 01:52:02 34° NW 01:55:26 10° N
Cosmos 2322 Rocket 2.9 01:54:35 40° E 01:54:35 40° E 01:59:34 10° NE
Cosmos 1850 Rocket 4.1 01:50:46 10° NNW 01:56:07 69° ENE 01:56:14 69° ENE
Cosmos 1238 Rocket 3.7 01:51:26 10° N 01:56:57 77° W 01:57:13 75° SW
Mayak 0.0 02:03:00 10° N 02:06:13 36° NW 02:06:13 36° NW
CZ-2C R/B 4.1 02:03:07 10° N 02:07:17 25° WNW 02:08:26 23° W
Cosmos 1461 4.1 02:03:43 10° NW 02:06:30 39° NW 02:06:30 39° NW
USA 81 4.3 02:03:47 10° N 02:08:59 56° E 02:09:11 56° E
Cosmos 2360 4.3 02:08:56 64° W 02:09:25 67° WNW 02:15:07 10° NNE
Cosmos 1975 3.9 02:11:35 44° N 02:11:35 44° N 02:14:28 10° N
Cosmos 44 Rocket 4.4 02:08:14 10° NNW 02:12:41 39° NE 02:13:48 34° E
Cosmos 1420 Rocket 4.0 02:13:07 70° WNW 02:13:07 70° WNW 02:18:13 10° NNE
Cosmos 1892 Rocket 4.4 02:08:45 10° NNW 02:12:11 47° NW 02:12:11 47° NW
SL-24 R/B 4.4 02:16:16 81° NW 02:16:16 81° NW 02:20:49 10° NNW
Cosmos 2227 4.4 02:13:45 10° NNW 02:18:45 54° W 02:18:45 54° W
PSLV R/B 4.3 02:16:55 10° NNE 02:21:15 53° E 02:21:15 53° E
Cosmos 839 Rocket 4.2 02:21:21 51° WSW 02:22:43 64° NW 02:28:55 10° NNE
ATLAS 2AS CENTAUR R/B 4.2 02:21:12 25° SE 02:22:51 27° ESE 02:29:15 10° NE
Cosmos 1066 Rocket 4.3 02:22:01 10° NNW 02:27:04 59° W 02:27:04 59° W
CZ-4C R/B 3.2 02:20:42 10° NW 02:27:35 47° WSW 02:27:59 47° SW
NOSS 3-1 (A) 3.3 02:26:49 66° WSW 02:27:40 80° NW 02:34:15 10° NE
Cosmos 1626 Rocket 4.0 02:26:39 10° N 02:30:22 60° NNE 02:30:22 60° NNE
Cosmos 2263 Rocket 2.3 02:26:38 10° NNW 02:32:21 71° ENE 02:33:26 56° ESE
Nadezhda 1 Rocket 4.0 02:28:06 10° NNW 02:34:06 60° W 02:34:38 58° WSW
Cosmos 1709 Rocket 3.8 02:39:20 64° SSE 02:40:17 79° E 02:46:25 10° N
Cosmos 1741 Rocket 4.5 02:36:01 10° NNW 02:40:22 47° WNW 02:40:22 47° WNW
Cosmos 2360 Rocket 2.9 02:43:23 40° ESE 02:43:55 41° ESE 02:49:10 10° NE
CZ-4B R/B 3.9 02:45:58 17° NW 02:45:58 17° NW 02:47:00 10° NW
ATLAS 3B R/B 4.3 02:38:20 10° NNW 02:44:22 32° NE 02:50:09 10° E
Cosmos 220 Rocket 4.4 02:40:37 10° NNW 02:44:10 60° N 02:44:10 60° N
Cosmos 1980 Rocket 3.5 02:43:36 27° W 02:45:14 31° NW 02:50:12 10° N
Cosmos 1331 Rocket 4.1 02:46:22 62° ESE 02:46:30 62° ESE 02:51:36 10° NNE
Cosmos 1743 4.0 02:51:03 35° NW 02:51:03 35° NW 02:53:44 10° N
Cosmos 44 3.2 02:50:52 10° NNW 02:54:53 72° N 02:54:53 72° N
SL-8 R/B 4.1 02:56:08 52° ESE 02:56:08 52° ESE 03:00:04 10° ENE
Cosmos 1842 4.0 02:52:05 10° N 02:55:02 50° N 02:55:02 50° N
Cosmos 1455 Rocket 4.4 02:59:54 28° WNW 02:59:54 28° WNW 03:03:19 10° NNW
COSMOS 2428 4.2 02:59:19 23° SE 03:00:49 26° ESE 03:05:27 10° NE
Helios 1A Rocket 3.2 03:00:58 10° NNE 03:04:37 61° ENE 03:04:37 61° ENE
H-2A R/B 3.3 03:01:51 10° N 03:05:02 39° NW 03:05:02 39° NW
NOSS 2-3 (C) 4.1 03:07:39 54° SE 03:07:51 54° ESE 03:13:09 10° NE
CBERS-1 4.5 03:04:51 10° NNE 03:09:52 50° E 03:10:52 44° SE
Cosmos 1486 Rocket 4.2 03:08:26 10° NNW 03:13:45 69° ENE 03:15:34 41° SE
Lacrosse 5 rocket 3.5 03:12:43 10° NNW 03:16:01 25° NNE 03:19:26 10° E
Cosmos 2322 3.8 03:15:50 51° SSE 03:16:59 63° ESE 03:22:35 10° NNE
Cosmos 2333 Rocket 4.3 03:16:29 12° SE 03:19:15 17° E 03:22:48 10° ENE
Resurs 1-4 Rocket 3.3 03:14:58 10° NNE 03:19:44 33° E 03:21:44 25° SE
SL-08 R/B 3.3 03:18:57 55° SE 03:19:50 71° ENE 03:24:26 10° N
SL-16 R/B 3.2 03:15:50 18° SE 03:20:25 53° ENE 03:26:29 10° N
Cosmos 2184 Rocket 4.1 03:18:46 41° SSE 03:20:55 68° E 03:27:03 10° NNE
Cosmos 2181 Rocket 4.2 03:18:37 10° NNW 03:24:54 57° W 03:26:26 46° SW
Cosmos 1437 Rocket 4.2 03:29:12 29° WNW 03:29:12 29° WNW 03:32:32 10° N
IRS-1C 4.4 03:26:16 10° NNE 03:31:34 63° ESE 03:33:15 42° SSE
Cosmos 1953 Rocket 3.6 03:27:23 10° N 03:31:53 77° E 03:32:41 58° SSE
SL-16 R/B 3.2 03:30:24 30° W 03:32:10 36° NW 03:37:24 10° N
DELTA 2 R/B (1) 3.6 03:32:19 52° S 03:32:38 53° S 03:38:03 10° E
AQUA 3.8 03:27:57 10° NNE 03:32:44 73° ESE 03:33:42 55° SSE
Cosmos 1707 3.3 03:31:35 10° N 03:35:22 51° E 03:36:03 44° ESE
Cosmos 2058 Rocket 3.5 03:36:39 45° SE 03:37:42 57° E 03:42:08 10° NNE
Cosmos 2322 Rocket 3.3 03:36:23 26° W 03:38:22 33° NW 03:43:30 10° N
USA 234 3.2 03:34:48 10° NE 03:41:23 80° SE 03:44:08 38° SW
ADEOS Rocket 2.8 03:38:20 10° NNE 03:44:30 80° WNW 03:46:32 43° SSW
Cosmos 1302 Rocket 4.0 03:44:32 49° SW 03:45:53 70° WNW 03:51:12 10° NNE
Meteor 2-5 Rocket 4.0 03:40:24 10° N 03:46:05 68° ENE 03:49:55 22° SSE
NOSS 2-3 (D) 3.9 03:45:16 51° SW 03:46:29 78° NW 03:52:04 10° NE
Nadezhda 3 Rocket 4.4 03:41:20 10° N 03:47:32 61° E 03:52:38 16° SSE
COBE Rocket 4.1 03:44:22 10° N 03:49:31 64° WNW 03:50:56 45° SW
H-2A R/B 4.4 03:07:30 10° W 03:50:49 46° SSW 03:57:45 10° SE
Cosmos 2074 Rocket 4.0 03:48:28 40° SSW 03:50:51 70° W 03:57:10 10° N
Cosmos 1726 Rocket 3.5 03:50:51 59° SW 03:51:34 73° W 03:56:01 10° N
Cosmos 1844 4.4 03:46:22 10° NNW 03:51:52 53° ENE 03:57:23 10° SE
CZ-2D R/B 2.4 03:48:15 10° NNE 03:53:44 67° ESE 03:56:15 32° S
Meteor 1-15 Rocket 4.5 03:52:35 40° SW 03:54:17 54° WNW 03:59:56 10° N
Cosmos 1607 3.9 03:49:27 10° NW 03:55:54 74° WSW 04:02:19 10° SSE
IRS-P3 4.4 03:51:30 10° N 03:56:44 55° WNW 03:58:27 38° SW
BREEZE-M DEB (TANK) 4.2 03:56:16 26° SSE 03:58:13 36° ESE 04:10:00 10° ENE
NPP 3.9 03:54:23 10° N 03:59:39 55° WNW 04:01:29 37° SW
IRS-1D 3.5 03:58:18 10° NNE 04:03:17 79° ESE 04:05:27 35° S
Cosmos 1184 Rocket 2.7 04:00:06 10° N 04:03:26 85° ENE 04:03:38 77° SSE
OAO 3 Rocket 4.3 04:06:14 26° SSE 04:06:14 26° SSE 04:09:19 10° SE
Spot 4 Rocket 4.0 04:00:20 10° NNE 04:05:32 86° ESE 04:07:50 34° SSW
MOS 1 Rocket 3.6 04:01:30 10° NNE 04:05:53 54° E 04:07:53 29° SSE
Cosmos 1503 Rocket 3.9 04:01:29 10° NNW 04:06:49 80° WSW 04:10:26 21° SSE
Cosmos 1606 Rocket 4.2 04:06:41 37° WSW 04:07:27 40° WNW 04:11:42 10° N
Meteor 2-8 Rocket 4.4 04:02:45 10° N 04:08:53 82° W 04:12:58 22° S
ADEOS 3.6 04:07:35 10° NNE 04:12:50 76° ESE 04:15:40 28° S
ATLAS 2AS CENTAUR R/B 3.1 04:08:38 29° SW 04:13:07 77° NW 04:21:20 10° NE
Cosmos 2263 Rocket 3.8 04:12:02 10° WNW 04:15:05 17° W 04:15:05 17° W
Cosmos 2154 Rocket 4.0 04:12:07 27° S 04:15:47 85° W 04:22:05 10° N
Cosmos 1610 Rocket 4.5 04:12:54 31° SSW 04:15:55 66° W 04:22:02 10° N
Cosmos 1544 4.3 04:15:09 20° SSE 04:17:13 38° E 04:20:42 10° NNE
Meteor 2-19 Rocket 4.4 04:15:33 26° S 04:19:17 87° W 04:25:29 10° N
Cosmos 1992 Rocket 4.0 04:16:51 30° S 04:19:28 79° ESE 04:24:42 10° NNE
Cosmos 2237 4.5 04:17:53 30° SW 04:20:30 56° WNW 04:26:07 10° NNE
Meteor 1-4 Rocket 4.2 04:23:00 19° WNW 04:23:08 19° WNW 04:25:49 10° NNW
ARIANE 5 R/B 2.5 04:18:16 10° N 04:23:26 77° WNW 04:26:12 28° SSW
Cosmos 1271 Rocket 2.8 04:23:45 40° SW 04:25:00 64° W 04:28:58 10° N
Cosmos 2360 Rocket 3.3 04:25:09 21° WSW 04:28:00 32° NW 04:33:03 10° N
Cosmos 2219 Rocket 2.2 04:25:56 25° SSW 04:29:19 79° ESE 04:35:01 10° NNE
Cosmos 2228 3.6 04:29:37 32° WSW 04:30:57 41° WNW 04:35:03 10° N
Tiangong 1 3.4 04:31:28 11° SE 04:31:28 11° SE 04:31:59 10° SE
Meteor 1-22 Rocket 4.3 04:27:27 21° S 04:31:29 86° E 04:37:30 10° N
Cosmos 1340 Rocket 2.8 04:29:14 10° NNW 04:33:10 61° W 04:34:59 29° SSW
Cosmos 1844 Rocket 2.8 04:29:27 10° NNW 04:35:00 55° WSW 04:40:30 10° S
ATLAS 3B R/B 2.5 04:28:53 10° NW 04:35:33 66° WSW 04:41:56 10° SSE
Cosmos 1980 4.2 04:33:22 17° S 04:37:37 56° ESE 04:43:11 10° NNE
SL-8 R/B 4.3 04:34:05 15° W 04:37:58 53° NNW 04:42:43 10° ENE
Cosmos 2237 Rocket 2.8 04:34:00 16° S 04:38:22 52° ESE 04:43:49 10° NE
Cosmos 2341 Rocket 4.0 04:36:31 19° SSW 04:41:15 76° W 04:47:38 10° N
UNKNOWN OBJECT B 2.7 04:39:22 10° N 04:43:14 82° WNW 04:45:32 24° SSW
BREEZE-M DEB (TANK) 2.2 04:43:17 33° SW 04:44:28 65° SSE 04:49:24 10° ENE
COSMOS 2428 3.2 04:41:21 23° SW 04:44:45 50° WNW 04:50:21 10° NNE
Aureole 2 Rocket 3.0 04:43:07 28° SW 04:45:04 59° WNW 04:49:00 10° NNE
Cosmos 972 4.3 04:44:52 21° SSW 04:48:07 81° WNW 04:53:04 10° NNE
Cosmos 1378 4.5 04:47:41 10° NW 04:50:36 22° W 04:51:08 21° WSW
ADEOS II 3.3 04:46:47 10° NNE 04:51:44 40° E 04:56:39 10° SSE
Lacrosse 5 rocket 1.3 04:51:31 10° NW 04:55:27 58° SW 04:59:36 10° SSE
Cosmos 2218 Rocket 4.2 04:50:59 10° S 04:57:15 78° E 05:03:39 10° N
Cosmos 389 Rocket 3.3 04:56:54 24° SW 04:58:30 37° WNW 05:01:53 10° N
BREEZE-M DEB (TANK) 4.1 04:55:13 10° WNW 04:59:25 77° NNE 05:15:48 10° ESE
Resurs 1-4 Rocket 3.0 04:54:51 10° N 04:59:31 33° WNW 05:02:49 17° WSW
Meteor 2-21 4.5 04:56:08 10° S 05:02:14 89° E 05:08:25 10° N
Cosmos 2333 Rocket 2.3 04:58:30 18° SW 05:02:51 71° WNW 05:08:33 10° NNE
SL-16 R/B 3.5 05:00:56 17° SW 05:04:19 26° W 05:09:29 10° NW
USA 161 1.4 05:04:04 10° SSE 05:07:01 88° WSW 05:09:52 10° NNW
MOZ.5/SAFIR/RUBIN 5/SL-8 4.3 05:03:27 14° SSW 05:07:04 38° W 05:11:24 10° NNW
USA 238 DEB 3.9 05:00:19 10° NW 05:07:09 52° WSW 05:14:00 10° SSE
USA 238 3.9 05:00:25 10° NW 05:07:15 52° WSW 05:14:08 10° SSE
Cosmos 1758 3.3 05:03:49 12° S 05:07:34 89° W 05:11:40 10° N
Cosmos 1356 Rocket 3.3 05:03:58 10° NNW 05:07:56 60° W 05:11:51 10° S
Abrixas rocket 2.3 05:07:34 21° SW 05:09:38 67° SSE 05:12:57 10° ENE
Cosmos 2278 Rocket 2.1 05:04:12 10° NNW 05:09:52 73° WSW 05:15:30 10° SSE
Cosmos 1470 3.7 05:07:46 10° SSE 05:11:32 47° E 05:15:18 10° NNE
Cosmos 1953 2.3 05:07:54 10° S 05:11:55 87° E 05:15:56 10° N
Meteor 2-15 4.4 05:07:20 10° N 05:13:30 78° W 05:19:37 10° S
Cosmos 968 Rocket 3.6 05:11:46 10° NNW 05:16:48 53° WSW 05:21:46 10° S
Centaur D AC-29 3.5 05:13:55 12° SSW 05:17:45 21° SSE 05:29:13 10° ESE
PSLV R/B 4.3 05:14:16 10° NNE 05:18:11 61° E 05:22:10 10° S
DELTA 2 R/B (1) 3.7 05:13:19 10° W 05:18:46 56° S 05:24:12 10° ESE
Cosmos 1812 Rocket 4.3 05:17:25 14° SW 05:20:42 36° WNW 05:24:44 10° N
NOSS 3-2 (A) 4.0 05:14:36 10° NW 05:22:08 76° WSW 05:30:17 10° SSE
CZ-2D R/B 4.3 05:18:21 10° N 05:22:16 35° WNW 05:25:40 12° SW
Lacrosse 5 2.3 05:18:39 11° SSW 05:23:21 58° SE 05:28:22 10° NE
Cosmos 1076 Rocket 3.5 05:19:35 10° N 05:23:52 88° E 05:28:07 10° S
Cosmos 1733 3.4 05:20:02 10° S 05:23:54 73° E 05:27:47 10° NNE
USA 234 4.2 05:18:01 10° NE 05:24:04 41° NNW 05:30:06 10° W
Cosmos 1674 2.6 05:20:50 10° NNW 05:24:41 71° W 05:28:31 10° S
ERBS 2.7 05:22:15 14° WSW 05:25:04 58° NW 05:28:29 10° NE
SL-16 R/B 2.8 05:22:15 10° S 05:27:45 56° ESE 05:33:18 10° NNE
NOSS 0 Rocket 4.2 05:23:00 12° SW 05:28:44 58° WNW 05:34:54 10° NNE
Meteor 2-21 Rocket 4.5 05:25:03 10° SSW 05:31:06 68° W 05:37:15 10° N
CZ-2D R/B 3.8 05:29:29 10° NNW 05:33:14 19° WNW 05:36:58 10° WSW
SL-8 Rocket 4.4 05:29:52 10° SSW 05:35:54 46° WNW 05:41:58 10° N
CZ-4B R/B 2.9 05:32:53 10° NNE 05:36:50 86° ESE 05:40:57 10° SSW
Cosmos 1818 3.6 05:32:31 10° SW 05:37:55 75° NW 05:43:24 10° NNE
RESURS DK-1 3.3 05:34:03 10° S 05:38:01 47° ESE 05:42:02 10° NE
NOSS 8 (A) 4.4 05:36:00 10° SW 05:39:15 70° NW 05:42:39 10° NNE
Atlas Centaur 2 3.6 05:38:05 10° S 05:39:39 12° SSE 05:41:19 10° SE
Okean 3 Rocket 3.9 05:35:30 10° NNW 05:39:46 47° W 05:44:03 10° SSW
Okean O Rocket 1.8 05:36:05 10° NNE 05:40:34 80° ESE 05:45:02 10° S
Landsat 4 3.7 05:37:30 10° SSE 05:41:14 87° ENE 05:44:58 10° NNW
Cosmos 1766 Rocket 3.6 05:39:44 10° N 05:44:14 86° W 05:48:41 10° S
NOSS 3-2 (C) 4.0 05:36:55 10° NW 05:44:26 72° WSW 05:52:34 10° SSE
Cosmos 724 4.4 05:41:49 10° NW 05:47:34 54° WSW 05:53:10 10° SSE
IRS-1C Rocket 4.4 05:44:26 10° NNE 05:49:43 74° ESE 05:54:57 10° S
CENTAUR R/B 3.9 05:42:48 10° NNW 05:50:32 61° NE 05:58:51 10° SE
